Вернуться в каталог

STARLINK-36926

АктивенСвязьVLEO
NORAD 67999·PAYLOAD·🇺🇸 United States

Запущен Feb 27, 2026 с Vandenberg Space Force Base

Loading…

Ближайшие Пролёты (ближайшие 24 часа)

TLE

СвежийSource: CelesTrak SupGP

Эпоха: Sep 15, 2026, 03:30 UTC

1 67999C 26039P   26258.14631944 -.00029209  00000+0 -10577-2 0  2588
2 67999  43.0018  58.5850 0001453 269.4390  64.6577 15.27600540    11

Отслеживайте STARLINK-36926 в реальном времени с AllMySat

Download on the App Store